Miscellaneous Local Product
Issued by NWS Hastings, NE

Home | Current Version | Previous Version | Graphics & Text | Print | Product List | Glossary On
Versions: 1 2 3 4 5 6 7 8 9 10 11 12 13 14 15 16 17 18 19 20 21 22 23 24 25 26 27 28 29 30 31 32 33 34 35 36 37 38 39 40 41 42 43 44 45 46 47 48 49 50
000
AXUS43 KGID 280302
MISGRI

GID CWA HOURLY WEATHER ROUNDUP
NATIONAL WEATHER SERVICE HASTINGS NE
900 PM CST TUE JAN 27 2015

NOTE: "FAIR" INDICATES FEW OR NO CLOUDS BELOW 12,000 FEET WITH NO
SIGNIFICANT WEATHER AND/OR OBSTRUCTIONS TO VISIBILITY.

...SOUTH CENTRAL NEBRASKA...

CITY           SKY/WX    TMP DP  RH WIND       PRES   REMARKS
GRAND ISLAND   CLEAR     44  32  62 SE10      29.95S
HASTINGS       PTCLDY    48  31  51 SE12      29.93S
KEARNEY        CLEAR     43  28  56 SE6       29.93S
ORD            CLEAR     39  30  70 CALM      29.90F
YORK           CLEAR     45  32  61 SE12      29.97S
AURORA         CLEAR     40  31  71 SE10      29.95F WCI  33
LEXINGTON      CLEAR     38  30  73 SE3       29.91F
HOLDREGE       CLEAR     42  27  56 SE8       29.93S
HEBRON         CLEAR     46  31  57 E6        29.95F

...NEBRASKA PANHANDLE...

CITY           SKY/WX    TMP DP  RH WIND       PRES   REMARKS
CHADRON        MOCLDY    40  32  73 SW8       29.89F WCI  34
ALLIANCE       PTCLDY    37  28  70 CALM      29.94F
SCOTTSBLUFF      N/A    N/A N/A N/A MISG      29.96F
SIDNEY         PTCLDY    40  29  64 NW10      29.97F WCI  33

...WESTERN AND NORTH CENTRAL NEBRASKA...

CITY           SKY/WX    TMP DP  RH WIND       PRES   REMARKS
VALENTINE      PTCLDY    38  30  73 SW6       29.87S WCI  33
AINSWORTH      CLEAR     41  31  68 S8        29.87F
ONEILL         CLEAR     43  35  75 SE8       29.90F
BROKEN BOW     CLEAR     37  29  72 CALM      29.90F
IMPERIAL       CLOUDY    44  26  49 N3        29.93F
NORTH PLATTE   PTCLDY    36  26  67 CALM      29.91F
MCCOOK         PTCLDY    52  30  43 W7        29.91F

...EASTERN NEBRASKA...

CITY           SKY/WX    TMP DP  RH WIND       PRES   REMARKS
NORFOLK        CLEAR     41  31  67 SE12      29.96F
SO SIOUX CITY  CLEAR     38  31  76 SE8       30.00F WCI  32
TEKAMAH        CLEAR     34  29  82 S6        30.03S WCI  29
COLUMBUS       CLEAR     41  28  60 SE8       30.00S
ALBION         CLEAR     41  31  69 SE10      29.95F
OMAHA EPPLEY   CLEAR     42  30  62 SE14      30.04F
OFFUTT AFB     CLEAR     40  30  66 E12       30.04S WCI  33
MILLARD        CLEAR     42  31  66 SE8       30.03S
LINCOLN        CLEAR     44  31  60 SE9       30.02S
NEBRASKA CITY  CLEAR     43  26  51 SE10      30.04S
BEATRICE       CLEAR     45  31  59 SE8       29.99F
FALLS CITY     CLEAR     40  29  64 SE10      30.04F WCI  33

...NORTHERN KANSAS...

CITY           SKY/WX    TMP DP  RH WIND       PRES   REMARKS
GOODLAND       MOCLDY    53  28  38 S9        29.96F
HILL CITY      CLEAR     43  28  55 W5        29.93S
NORTON         CLEAR     48  27  43 CALM      29.92S
PHILLIPSBURG   CLEAR     48  32  53 CALM      29.92S
SMITH CENTER   CLEAR     48  32  53 E12       29.91F
BELOIT         CLEAR     54  36  50 E12       29.90F
HAYS           CLEAR     54  27  35 W3        29.94S
RUSSELL        CLEAR     54  31  41 S13       29.91S
CONCORDIA      CLEAR     49  34  56 SE12      29.93F
SALINA         CLEAR     55  37  50 S14       29.92F
TOPEKA         CLEAR     47  32  56 E10       30.05F



USA.gov is the U.S. government's official web portal to all federal, state and local government web resources and services.